Theta_e
320 319 317 314 313 316 317 319 320 319 319 321 310 311 311 312 319 316 318 318 318 318 318 317 317 317 316 314 311 314 313 314 311 311 312 312 312 313 311 314 317 310 309 310 308 313 319 317 319 320 318 324 331 332
319 317 315 313 316 318 318 319 320 319 319 321 309 311 310 315 319 315 318 318 318 318 318 318 318 317 317 317 317 317 315 316 316 311 310 311 315 312 311 312 312 314 311 314 310 311 314 318 321 326 326 325 330 332
316 313 313 316 319 319 318 319 319 319 319 320 309 310 309 316 319 316 314 319 318 318 318 319 318 317 316 318 318 317 318 319 316 316 313 310 313 309 312 313 316 314 312 314 315 316 316 319 324 324 327 326 326 331
313 313 317 319 319 319 319 319 318 319 319 318 309 309 309 312 316 314 317 319 319 319 317 319 317 316 315 316 318 317 318 318 317 315 311 308 311 311 310 310 311 313 313 311 312 314 315 317 322 323 324 327 329 328
314 315 315 315 315 318 319 318 317 319 320 315 309 309 310 310 313 315 319 321 321 320 317 318 317 315 314 314 316 317 318 317 317 316 312 312 311 310 309 308 309 312 311 313 315 315 314 316 320 321 321 320 322 325
316 316 317 315 317 317 316 315 316 318 321 312 309 309 309 310 311 317 315 319 322 320 319 314 317 316 315 315 313 314 316 317 317 316 313 313 312 310 309 310 312 315 315 315 315 315 315 315 316 320 321 321 319 318
316 317 318 317 316 315 315 314 317 319 320 309 309 309 309 311 313 319 319 319 320 321 319 316 316 317 317 318 316 315 313 313 315 313 312 312 311 311 306 305 313 317 316 316 316 316 316 315 315 315 316 319 320 321
318 317 317 316 315 314 314 315 318 319 310 309 309 310 311 312 319 319 318 319 320 322 319 312 314 317 318 318 317 316 315 314 312 312 311 309 309 306 305 309 314 315 315 316 315 315 314 314 314 315 316 314 315 316
317 317 318 316 318 318 318 319 313 308 309 311 314 318 319 320 320 317 314 318 321 321 320 316 314 315 317 316 316 316 316 309 311 309 309 309 305 303 305 307 312 314 314 315 315 315 314 313 313 313 313 315 315 314
317 318 318 319 319 317 309 308 309 310 313 318 320 321 321 318 316 318 316 317 317 318 319 318 316 314 317 314 313 313 312 306 304 307 311 307 306 312 310 308 312 314 314 313 311 311 312 313 313 313 314 314 314 313
317 318 319 320 319 309 308 310 312 315 319 321 322 318 317 316 318 320 319 316 317 320 320 319 318 314 315 313 311 312 307 305 308 307 309 305 307 310 312 310 312 313 313 312 312 310 310 312 313 313 313 313 313 314
317 318 319 318 309 308 310 313 315 319 320 320 320 317 316 318 320 318 316 316 316 317 315 316 317 316 315 316 313 311 310 307 311 309 310 307 307 312 312 310 311 311 312 313 313 311 311 311 312 312 311 311 311 311
315 317 317 309 308 309 312 315 317 319 320 320 321 319 319 318 313 319 320 318 316 316 315 315 314 316 314 313 312 309 311 310 309 311 308 308 312 313 313 313 312 312 313 313 314 313 312 312 312 312 311 311 312 312
312 315 312 307 307 308 311 315 313 314 318 319 319 311 314 316 316 315 316 316 319 318 317 316 315 315 314 311 309 312 309 308 311 309 312 309 313 313 313 314 314 313 313 314 315 314 313 314 313 313 311 311 311 310
312 312 309 310 308 308 308 309 311 310 318 320 321 317 316 317 318 319 320 320 322 319 318 316 315 315 311 312 310 311 314 316 312 311 308 312 314 314 313 314 315 314 314 314 314 313 313 311 310 309 308 308 307 307
312 311 312 312 313 313 312 310 309 309 313 315 320 319 319 319 320 321 321 322 322 319 317 317 313 314 316 313 315 314 315 315 313 310 314 315 316 316 315 314 314 314 314 313 312 310 308 307 305 304 305 305 305 305
312 315 315 312 310 311 311 311 310 310 311 316 316 317 318 318 318 319 319 321 320 317 313 314 316 316 312 314 315 312 314 311 313 315 315 316 317 317 314 313 314 313 312 310 309 307 304 305 305 306 306 305 306 305
313 315 309 310 310 310 311 311 312 316 319 316 316 312 315 318 320 320 319 321 318 318 317 315 316 315 316 317 315 313 315 315 318 316 316 318 319 317 313 314 315 311 309 309 307 305 306 306 305 305 305 305 305 304
313 313 311 308 311 311 312 313 313 314 316 318 318 318 318 318 316 316 318 320 321 320 317 317 316 314 314 314 316 317 318 320 320 320 318 319 318 314 314 314 311 312 309 309 306 307 306 304 304 304 305 305 305 305
310 310 309 311 311 311 312 316 318 317 317 317 317 318 317 318 318 320 322 323 323 318 315 314 312 316 317 319 319 320 321 321 321 319 319 319 316 314 314 313 313 311 309 308 307 307 306 304 304 305 306 305 305 305
310 311 312 313 314 314 314 315 318 319 320 320 321 322 323 323 323 322 323 324 321 319 316 319 318 319 320 322 320 319 320 320 321 320 320 317 314 313 313 313 313 311 309 308 308 307 306 304 305 305 305 305 304 305
313 314 315 314 312 313 314 314 315 316 316 319 319 319 320 322 324 325 325 323 322 323 322 322 322 321 320 320 319 321 322 322 320 320 318 314 314 314 313 313 312 310 309 309 308 308 307 305 304 305 304 304 303 304
313 314 313 312 315 315 316 317 318 319 317 317 321 321 321 322 323 323 323 322 322 321 321 321 321 320 321 322 322 322 321 321 321 317 316 315 314 314 313 313 313 311 310 309 309 308 307 306 304 304 304 304 304 303
313 314 314 314 314 312 316 317 318 318 320 319 319 321 321 323 323 323 323 321 321 321 321 321 322 322 322 322 320 317 314 315 315 314 314 314 314 314 314 314 313 312 312 309 308 308 308 306 304 304 304 304 304 304
314 314 314 312 314 317 316 317 317 318 319 319 321 321 320 321 319 322 321 321 320 321 321 322 322 322 322 321 317 314 314 313 314 314 314 314 313 314 314 314 312 311 311 311 309 309 307 306 305 304 304 304 304 304
308 313 312 313 314 314 315 319 320 319 318 319 320 321 321 320 323 322 319 320 320 320 318 318 317 318 319 320 316 314 314 314 314 314 314 314 314 314 313 311 311 311 311 311 310 309 307 306 305 304 304 304 304 303
311 316 316 315 314 315 315 316 317 318 319 319 319 320 319 320 321 320 320 319 319 317 315 315 314 317 320 319 315 314 313 314 314 313 313 313 312 312 312 312 310 310 310 307 306 306 306 305 305 304 304 305 303 303
314 314 314 315 316 317 316 316 318 317 318 319 321 321 321 320 318 319 320 319 316 314 312 312 314 316 320 317 314 313 311 310 311 312 311 309 309 309 311 312 310 309 307 307 306 306 305 305 305 305 304 304 303 304
314 315 314 315 316 317 318 317 318 320 321 322 320 319 321 322 320 320 318 315 315 313 312 313 315 315 314 314 314 310 309 309 309 308 308 307 307 308 307 308 308 307 307 306 306 306 305 305 304 304 304 304 304 304
314 314 316 315 316 316 318 319 320 319 321 322 321 321 321 321 321 321 317 316 316 314 312 311 312 311 311 310 309 308 308 308 308 307 307 307 307 307 307 306 306 306 306 306 306 306 305 305 305 305 305 305 304 304
314 314 315 315 315 316 317 317 317 319 321 320 319 319 318 318 318 318 318 317 316 316 314 313 312 310 310 310 309 309 307 307 308 307 308 308 308 307 307 306 305 305 306 306 306 306 305 305 305 305 305 305 304 304
315 315 315 315 316 317 316 317 321 321 319 319 319 319 319 319 318 317 317 317 317 316 316 314 313 313 311 310 310 308 308 308 307 307 307 307 307 307 307 306 306 304 304 304 304 304 305 304 304 304 304 303 303 304
315 315 316 316 316 319 320 321 319 318 318 318 318 319 319 319 319 318 317 317 317 317 316 315 311 311 311 311 310 310 308 308 308 308 308 307 307 307 307 306 306 306 306 306 305 305 305 305 305 305 305 305 305 305
Wind_Speed
29 30 30 30 27 23 21 17 13 8 7 6 4 2 2 4 3 2 7 10 12 13 14 15 15 10 5 4 2 4 3 5 4 4 2 2 1 2 3 2 2 4 4 2 2 2 3 11 7 1 4 3 15 19
30 31 31 30 27 22 18 15 11 8 9 8 6 4 5 6 6 3 6 14 10 10 16 17 15 12 9 8 5 3 2 2 3 4 1 2 0 1 3 2 2 0 5 4 6 5 4 7 4 8 8 5 10 22
30 31 31 29 24 18 15 13 8 9 11 10 8 6 6 8 6 4 7 12 17 18 11 6 12 11 9 7 5 2 1 2 3 3 6 2 2 3 2 4 1 1 2 2 3 2 2 3 2 6 9 5 10 17
31 31 29 25 23 18 15 11 9 10 12 12 9 8 7 9 7 4 7 14 10 6 5 2 7 9 11 6 3 1 2 6 6 3 4 2 2 3 2 2 2 3 2 3 2 4 2 3 5 6 8 8 8 16
29 27 26 25 22 15 9 9 11 10 13 12 10 9 9 8 8 6 6 7 9 4 5 7 7 8 12 9 3 1 1 5 4 3 3 1 2 2 1 1 2 3 4 4 5 6 3 4 5 7 8 8 8 10
25 25 25 20 12 8 10 10 11 12 15 12 10 9 9 9 8 8 3 5 7 8 4 2 4 6 6 8 10 5 3 4 4 4 4 3 3 2 2 2 4 4 2 2 1 4 6 6 4 8 8 11 13 10
24 24 17 13 12 9 7 9 13 14 15 11 10 9 8 7 10 3 2 4 9 7 4 3 1 5 5 2 4 6 8 6 4 3 2 2 2 0 2 3 5 7 6 5 6 6 4 3 4 4 6 12 14 16
22 17 12 7 6 6 6 13 14 16 13 10 10 9 7 7 11 4 2 4 8 4 3 3 3 1 6 2 1 1 2 3 4 2 2 2 1 2 2 7 8 9 7 7 7 4 2 0 2 2 1 0 12 17
18 12 5 6 6 9 12 15 14 12 11 12 12 12 10 7 4 3 6 9 5 3 4 3 4 4 6 3 2 1 1 3 1 2 1 3 0 3 7 9 12 14 9 5 7 4 3 4 5 6 7 8 4 6
11 5 7 5 7 8 8 10 11 13 13 14 11 2 4 6 9 11 4 4 3 3 3 4 5 2 7 4 1 1 2 1 1 2 4 1 4 14 10 9 8 14 13 9 7 3 5 4 3 3 4 5 5 5
4 2 4 4 5 5 6 9 11 15 15 7 3 1 7 10 4 3 3 3 2 2 5 4 12 4 6 3 3 1 2 0 2 3 2 2 3 6 12 15 16 15 14 11 6 2 0 2 3 2 4 5 5 6
5 4 4 4 5 6 8 10 12 11 5 4 5 6 7 3 1 2 1 1 3 4 5 7 7 4 5 4 4 2 2 1 3 3 1 3 4 7 14 18 19 18 16 14 12 8 5 3 4 3 3 3 4 4
6 4 8 7 5 6 9 10 8 6 7 7 2 3 1 1 3 5 5 3 2 5 9 9 4 5 4 3 5 3 2 4 3 1 3 5 7 10 15 18 22 21 18 15 14 12 10 8 9 9 7 7 8 8
8 4 5 6 6 6 8 10 6 5 4 1 2 3 4 3 4 5 4 4 5 4 14 15 8 3 3 3 3 3 3 3 1 2 5 4 11 14 13 15 17 21 19 15 12 13 12 11 13 12 11 11 12 11
6 4 6 9 6 6 5 6 7 5 4 3 3 3 5 9 7 5 8 8 4 3 16 10 6 3 2 3 1 2 2 4 5 5 4 6 13 9 11 14 15 16 14 10 12 9 7 6 7 6 7 8 10 12
3 0 2 3 10 6 5 2 3 5 3 4 5 3 7 2 5 6 10 14 6 8 14 5 4 3 3 3 3 6 3 6 4 4 3 8 15 14 7 10 12 12 3 10 8 7 5 3 4 6 7 10 13 16
4 2 2 3 5 7 9 9 3 4 4 4 6 11 13 11 11 14 8 3 6 20 4 5 5 7 4 3 3 5 5 4 7 11 7 5 10 11 11 19 16 12 9 12 9 5 2 1 6 9 12 13 11 11
5 5 1 2 3 4 6 7 5 5 6 9 6 9 12 12 11 10 9 6 11 11 10 5 6 5 5 5 4 4 7 5 1 11 11 10 9 10 23 15 4 15 15 12 7 4 1 5 9 7 4 4 6 5
7 6 5 3 1 3 3 5 6 4 11 11 12 16 17 18 20 20 18 15 14 12 5 7 4 4 4 7 7 11 8 12 11 12 19 14 10 22 15 5 17 13 18 11 7 4 1 5 4 9 11 11 9 7
5 4 5 6 7 4 3 4 5 5 5 4 8 10 9 11 15 14 15 14 13 8 6 4 5 9 6 6 10 7 8 9 10 13 11 10 18 19 15 19 12 17 16 12 9 5 2 3 6 6 8 10 11 10
5 5 5 4 6 7 4 4 6 5 5 6 8 8 6 9 15 18 19 16 12 6 6 9 12 9 8 6 10 7 4 6 7 8 6 17 22 21 22 11 14 19 17 12 11 9 5 4 6 5 4 5 7 8
5 5 4 5 4 4 6 7 5 4 5 7 7 8 6 5 7 9 10 12 6 6 6 5 7 5 5 5 5 7 4 4 8 7 9 21 25 17 20 14 16 19 16 12 12 11 7 5 6 6 3 2 3 3
6 5 3 4 4 4 4 4 4 4 2 3 3 2 3 3 1 6 3 3 3 4 4 4 4 2 2 2 1 4 6 6 6 9 11 18 14 11 14 14 14 14 14 14 14 13 9 6 5 7 6 3 3 3
6 3 3 4 6 4 3 4 5 4 4 3 2 3 2 2 5 2 2 2 1 2 3 2 0 1 3 4 7 12 10 11 13 13 13 12 10 11 11 13 11 14 17 13 12 13 13 10 7 6 6 6 4 5
3 5 4 5 5 3 3 3 3 2 3 4 2 3 0 1 1 1 1 2 5 4 2 1 2 2 2 3 11 14 12 9 10 7 8 11 11 8 9 11 11 11 14 16 14 14 14 13 11 10 8 6 4 6
3 6 7 4 3 4 3 2 1 3 3 3 3 1 1 2 1 2 2 2 2 2 3 4 4 5 5 7 14 15 11 8 7 4 5 4 6 13 15 13 13 14 12 12 11 13 14 13 13 11 11 9 7 6
3 4 6 7 5 4 4 2 10 4 4 3 1 1 1 1 2 2 1 2 4 3 5 6 5 2 4 14 14 12 4 5 6 5 6 5 5 7 9 12 12 9 8 12 12 12 10 12 12 12 9 8 8 5
7 4 5 3 6 7 3 3 3 3 2 2 2 1 2 3 2 2 3 6 5 4 5 7 5 5 12 15 12 9 6 4 5 9 7 3 2 6 11 13 12 8 7 9 13 12 10 9 8 9 9 9 10 8
6 5 5 4 5 5 6 5 4 2 2 1 4 2 2 2 2 4 8 7 6 4 4 6 11 13 14 12 10 10 8 6 6 6 3 4 4 5 5 2 7 10 10 11 15 13 12 10 9 9 8 7 7 7
5 9 4 3 3 4 4 3 2 7 7 2 1 2 2 3 4 4 8 6 4 3 4 5 9 11 11 9 8 8 7 6 4 1 1 1 5 5 3 2 2 4 7 11 16 15 15 15 13 13 13 13 13 12
3 8 6 5 4 9 13 13 14 7 2 1 3 4 3 2 3 1 3 5 3 4 6 6 7 7 6 7 7 7 7 6 4 2 4 7 6 4 1 2 1 5 7 10 13 14 14 14 12 11 11 10 11 14
9 9 6 4 4 6 6 5 4 3 2 2 2 0 2 3 2 2 1 7 12 11 7 6 5 7 9 9 9 9 8 7 8 9 6 3 1 7 6 3 3 7 9 8 10 9 7 7 5 5 8 8 8 8
9 8 13 5 4 4 5 5 2 1 1 1 1 3 7 6 2 3 4 6 8 8 8 9 7 5 8 6 4 12 11 9 6 6 4 3 4 5 6 8 8 7 9 10 10 10 9 9 8 7 6 7 8 9
Wind_Direction
312 314 317 316 316 312 308 313 308 262 239 233 220 203 130 130 135 93 65 103 109 103 84 81 74 68 62 40 108 334 29 0 43 65 113 205 161 249 68 256 152 162 129 168 86 95 265 351 329 212 232 220 178 183
311 314 314 313 310 305 298 306 302 244 220 213 203 182 150 149 154 125 113 124 118 96 105 87 74 64 54 27 358 17 129 173 155 92 101 123 204 41 157 227 337 107 180 184 166 211 272 328 294 345 329 295 182 188
311 313 313 310 308 303 288 289 277 232 210 202 193 181 165 151 152 142 145 144 125 116 104 97 71 61 41 31 355 291 189 160 149 129 147 144 129 129 180 251 177 280 134 127 98 264 332 21 48 22 9 326 195 190
313 314 314 312 307 297 283 263 248 221 204 194 187 179 164 161 164 148 151 158 146 114 110 106 89 56 30 11 2 19 167 160 146 121 96 115 138 190 205 224 175 208 130 146 302 277 136 132 137 101 80 84 143 166
318 320 319 315 307 294 262 241 228 209 196 188 184 176 164 163 172 159 138 138 159 146 149 140 106 80 55 42 40 72 175 174 155 102 70 143 132 122 354 95 268 197 171 149 217 203 157 163 169 158 136 118 117 147
320 321 319 314 312 291 265 239 207 194 185 180 178 176 171 168 168 155 160 181 148 145 135 146 155 137 100 58 52 61 66 68 88 92 108 118 104 140 115 208 253 214 232 238 19 151 107 92 169 190 192 176 164 158
324 324 319 317 311 287 245 204 187 176 172 171 173 171 169 172 171 188 166 174 171 156 158 89 212 190 202 337 44 50 53 59 64 87 74 126 147 70 119 203 208 177 156 147 129 135 103 138 81 114 221 221 210 199
330 329 330 350 45 56 164 184 167 155 158 163 157 155 166 170 172 197 204 172 168 159 147 119 268 233 204 223 167 50 92 93 57 103 126 127 116 19 270 239 202 190 187 176 163 157 133 168 295 291 310 341 222 227
336 332 358 101 71 92 113 130 141 147 151 147 138 127 122 141 171 201 173 165 168 181 154 136 148 230 180 178 147 125 98 64 85 101 170 126 291 245 232 228 205 194 193 198 195 206 246 267 277 277 273 274 266 242
348 44 105 97 103 109 119 129 138 142 143 140 138 134 134 140 136 126 130 161 196 224 198 186 181 201 178 172 134 115 44 104 60 269 136 124 257 250 236 220 211 199 192 172 162 211 241 245 252 251 261 269 275 270
326 92 112 132 127 120 124 136 143 141 139 136 133 120 137 145 161 167 162 150 203 268 214 205 194 161 191 135 183 160 154 61 56 262 123 284 280 247 203 195 185 180 183 192 207 227 301 190 187 218 268 264 262 266
310 217 187 161 138 135 141 143 148 150 139 136 125 127 141 182 158 125 206 289 185 222 198 177 185 173 149 156 112 143 111 53 247 148 64 279 253 226 195 196 192 191 195 208 217 227 239 226 222 239 259 274 270 279
293 255 200 159 149 146 157 148 149 147 137 140 144 165 152 161 55 195 191 241 240 199 176 162 137 153 130 142 91 109 117 227 125 82 230 229 249 213 210 212 211 210 216 226 226 224 233 245 240 242 254 257 263 262
325 241 196 178 159 153 168 176 153 159 163 184 168 309 166 212 237 202 192 196 220 218 177 158 128 144 134 102 134 127 220 122 222 225 234 252 264 257 237 225 220 215 219 227 232 224 237 248 259 251 263 261 265 260
326 323 208 196 154 148 159 181 198 197 193 201 194 229 220 232 251 252 245 258 249 227 169 131 99 131 66 108 185 114 167 245 210 227 227 309 313 294 245 221 204 203 213 218 220 233 245 277 281 262 258 258 258 255
302 278 68 181 212 207 205 180 207 191 211 220 226 249 235 250 263 232 242 259 254 188 154 144 121 114 196 151 145 215 194 221 243 211 191 75 22 355 299 208 171 150 192 235 204 188 192 229 276 284 285 288 279 272
210 184 295 251 217 210 208 214 223 209 227 230 242 235 249 271 267 274 273 266 192 162 167 140 166 201 128 172 224 190 209 224 200 175 183 272 280 289 211 158 150 138 193 179 173 174 167 309 324 309 297 291 287 283
208 177 299 261 169 160 186 190 193 236 243 243 234 248 236 244 254 253 264 251 176 194 184 205 154 175 199 189 225 224 209 176 274 242 228 250 289 243 176 168 224 178 190 177 167 158 100 342 327 322 331 321 310 314
203 189 240 283 197 190 226 216 219 249 236 246 259 260 262 262 259 258 262 262 253 236 200 185 224 200 224 211 196 179 182 247 273 274 244 250 263 182 171 163 181 194 185 176 164 158 84 1 76 90 75 59 51 47
199 202 243 267 230 216 241 220 209 250 258 250 247 254 241 245 265 256 248 246 229 195 200 212 218 240 223 221 196 248 276 269 268 232 225 239 186 190 192 191 204 187 186 182 188 184 147 120 148 112 78 65 53 47
240 241 212 228 221 227 257 226 228 238 265 255 276 262 263 253 248 243 246 243 204 216 222 232 241 230 211 250 290 283 285 272 269 232 235 184 181 191 185 197 186 189 194 201 213 200 189 174 159 126 100 65 62 78
214 209 232 242 242 242 257 232 242 290 258 260 275 256 246 248 232 226 210 193 223 234 218 210 196 205 265 280 273 280 262 208 168 206 183 177 170 186 198 193 193 198 203 219 232 222 210 200 204 195 167 116 60 128
204 219 242 233 235 236 257 220 239 233 234 258 256 250 241 237 268 156 204 230 222 222 226 226 235 280 337 321 261 140 142 148 173 177 172 182 196 188 194 202 203 204 217 228 229 223 218 216 210 217 229 251 243 205
203 240 234 229 216 256 248 232 220 247 250 262 243 267 240 196 150 131 309 262 171 110 114 114 146 122 55 83 126 129 114 131 135 147 156 165 169 183 205 213 215 222 227 232 225 216 216 213 212 219 217 227 278 236
212 220 227 246 221 239 235 241 220 204 247 224 241 263 277 156 107 167 211 207 144 90 76 293 257 285 336 150 153 149 129 149 154 155 200 220 224 226 210 196 204 210 224 231 235 218 215 210 218 216 222 246 247 225
200 213 194 220 235 190 237 275 251 225 246 254 252 349 52 88 181 238 232 177 182 17 44 13 341 305 260 186 176 170 173 168 185 201 205 205 203 208 194 197 208 216 222 229 224 216 212 214 218 220 228 238 235 241
240 241 225 234 253 280 285 176 268 264 261 230 231 128 72 190 259 269 117 50 84 57 3 353 333 336 155 163 168 170 158 163 192 211 203 187 199 207 212 222 231 238 231 219 194 192 207 210 214 214 215 209 218 238
242 248 199 213 220 230 244 248 235 233 239 219 137 200 194 197 233 106 114 103 77 54 21 16 22 134 143 153 157 156 161 160 141 142 156 170 241 245 230 227 236 228 215 215 192 183 192 192 195 201 202 210 221 248
231 227 213 252 242 241 222 221 245 250 344 177 169 213 211 118 134 139 137 116 98 91 67 65 100 118 131 140 145 154 151 141 136 138 104 121 107 119 105 143 237 243 218 208 195 193 195 196 201 205 213 228 240 246
241 208 218 239 215 232 257 228 7 340 327 331 169 137 103 115 141 149 167 131 98 136 148 133 133 136 142 141 147 162 185 204 222 290 31 161 157 152 111 21 7 207 200 194 197 201 205 212 221 230 241 256 240 240
233 195 211 227 246 255 264 286 306 298 265 83 120 159 128 123 105 81 197 194 196 231 230 217 200 197 201 207 210 211 212 208 202 264 313 306 296 242 177 349 18 158 174 188 206 213 223 223 236 246 250 243 244 248
202 204 195 200 244 250 222 230 218 225 185 165 174 159 73 59 356 26 108 208 227 240 257 262 227 218 224 233 232 230 240 252 268 257 272 287 231 163 193 215 127 156 160 156 163 175 191 207 214 231 249 254 238 255
198 202 213 247 232 199 172 165 158 97 155 161 12 184 167 201 241 221 239 255 257 255 262 245 230 263 283 290 235 219 233 253 249 218 188 155 148 164 193 211 202 182 190 199 199 200 200 203 212 226 239 254 256 270